Hourly Data Report for January 07, 2003

SHERBROOKE A
QUEBEC

45°26'00.000" N
71°41'00.000" W
241.40 m
7028124
71610
YSC

Download Data

Hourly Data (January 2003)
Hourly Data Report for January 7, 2003
TIME
LST
Temp Definition
°C
Dew Point Definition
°C
Rel Hum Definition
%
Precip. Amount Definition
mm

Wind Dir Definition
10's deg

Wind Spd Definition
km/h
Visibility Definition
km
Stn Press Definition
kPa
Hmdx Definition


Wind Chill Definition


Weather Definition


00:00 -8.5 -11.0 82   23 6 4.8 98.27   -12 Snow
01:00 -8.2 -10.7 82   24 7 5.6 98.24   -12 Snow
02:00 -8.0 -10.5 82   27 7 4.8 98.23   -12 Snow
03:00 -7.4 -9.9 82   29 7 5.6 98.21   -11 Snow
04:00 -7.5 -10.1 82   29 9 6.4 98.16   -12 Snow
05:00 -8.1 -10.6 82   29 9 6.4 98.14   -13 Snow
06:00 -8.8 -11.5 81   30 4 15.0 98.14   -11  
07:00 -9.6 -12.1 82   25 7 11.3 98.13   -14  
08:00 -8.8 -11.6 80   26 6 19.3 98.14   -12 Snow Showers
09:00 -8.7 -11.7 79   28 9 16.1 98.13   -13 Snow Showers
10:00 -8.3 -11.7 76   30 13 8.0 98.07   -14 Snow Showers
11:00 -8.7 -12.1 76   29 15 8.0 97.96   -15 Snow Showers
12:00 -8.9 -13.0 72   28 15 12.9 97.78   -15 Snow Showers
13:00 -8.5 -13.0 70   27 11 19.3 97.66   -14 Snow Showers
14:00 -8.5 -13.3 68   28 17 6.4 97.63   -15 Snow Showers
15:00 -9.9 -14.7 68   27 13 24.1 97.56   -16 Snow Showers
16:00 -11.5 -15.6 72   23 6 24.1 97.44   -15 Mainly Clear
17:00 -13.3 -16.4 77   25 7 24.1 97.35   -18 Mainly Clear
18:00 -16.4 -18.7 82   14 9 15.0 97.17   -22  
19:00 -17.4 -19.6 83   9 4 15.0 97.10   -21  
20:00 -16.4 -18.9 81     0 15.0 96.96      
21:00 -15.4 -17.8 82   9 4 15.0 96.82   -18  
22:00 -14.2 -16.8 81   7 4 15.0 96.67   -17  
23:00 -13.4 -16.0 81   6 4 6.4 96.50   -16 Snow

Notes on Data Quality.

Legend

  • E = Estimated
  • M = Missing
  • NA = Not Available*
  • [empty] = Indicates an unobserved value
Date modified: